Regional Weather Roundup
Issued by NWS

Home | Current Version | Previous Version | Graphics & Text | Print | Product List | Glossary On
Versions: 1 2 3 4 5 6 7 8 9 10 11 12 13 14 15 16 17 18 19 20 21 22 23 24 25 26 27 28 29 30 31 32 33 34 35 36 37 38 39 40 41 42 43 44 45 46 47 48 49 50
000
ASUS43 KLOT 120506
RWRIL

ILLINOIS REGIONAL WEATHER ROUNDUP
NATIONAL WEATHER SERVICE CHICAGO/ROMEOVILLE IL
1200 AM CDT SAT JUL 12 2014

NOTE: "FAIR" INDICATES FEW OR NO CLOUDS BELOW 12,000 FEET WITH NO
SIGNIFICANT WEATHER AND/OR OBSTRUCTIONS TO VISIBILITY.

* THESE STATIONS ARE NOT UNDER NWS QUALITY CONTROL. THEY ALSO MAY NOT
  REPORT WEATHER SUCH AS PRECIPITATION OR FOG.

ILZ001-002-007-009-015-016-024-120600-
NORTHWEST ILLINOIS

CITY           SKY/WX    TMP DP  RH WIND       PRES   REMARKS
MOLINE         PTCLDY    72  67  84 E5        30.06F
STERLING*      MOCLDY    70  64  83 SE3       30.09F
SAVANNA*       MOCLDY    70  64  82 CALM      30.08S
$$

ILZ003-004-008-010-011-017-018-120600-
NORTH CENTRAL ILLINOIS

CITY           SKY/WX    TMP DP  RH WIND       PRES   REMARKS
ROCKFORD       MOCLDY    71  61  70 SE7       30.11S
FREEPORT*      CLOUDY    66  62  86 SE5       30.12S
ROCHELLE*      MOCLDY    69  62  77 SE6       30.11F
DE KALB*       CLOUDY    70  60  71 SE8       30.12F
PERU*          CLOUDY    74  65  74 SE6       30.11F
$$

ILZ005-006-012>014-019>023-120600-
NORTHEAST ILLINOIS

CITY           SKY/WX    TMP DP  RH WIND       PRES   REMARKS
CHICAGO-OHARE  CLOUDY    73  59  61 S7        30.12F
CHICAGO-MIDWAY CLOUDY    78  60  53 S8        30.13S
AURORA         CLOUDY    71  61  70 SE6       30.12F
LANSING*       CLOUDY    72  60  65 CALM      30.15S
JOLIET*        CLOUDY    72  60  64 SE3       30.14S
WAUKEGAN       MOCLDY    66  61  84 CALM      30.11F
DUPAGE AIRPORT CLOUDY    73  60  63 S7        30.12F
KANKAKEE*      CLOUDY    71  65  80 SE3       30.15R
WHEELING       CLOUDY    73  61  65 SE5       30.13F
MORRIS*        CLOUDY    72  64  74 SE5       30.12S
ROMEOVILLE*    CLOUDY    71  62  73 SE8       30.13S
NORTHERLY ISL    N/A     74  58  57 S6          N/A
$$

LMZ740>746-120600-
SOUTHERN LAKE MICHIGAN

STATION/POSITION SKY/WX   TEMP    WIND        PRES    VSBY  WAVE
                          AIR SEA DIR/SP/G                  HT/PER
                          (F)     (DEG/KT/KT) (MB)    (MI)  (FT/S)
SOUTHERN BUOY              64 60  150/  8/  8 1020.3F         0
WAUKEGAN HARBOR            64     180/  8/  9 1021.0S
HARRISON CRIB              71     160/ 10/ 12   N/A
BURNHAM HARBOR             75     170/  4/  6   N/A
CALUMET HARBOR             76     170/  5/  6 1021.3R
MICHIGAN CITY              73     130/  5/  7   N/A
$$

ILZ025>027-034>036-040-047-049-050-058-095>099-120600-
WEST-CENTRAL ILLINOIS

CITY           SKY/WX    TMP DP  RH WIND       PRES   REMARKS
QUINCY         MOCLDY    78  71  79 S5        30.07R HX  80
GALESBURG*     CLOUDY    74  68  80 SE5       30.08F
MACOMB*        CLOUDY    72  69  90 SE6       30.10S
JACKSONVILLE*  MOCLDY    77  71  80 SE5       30.10S
PITTSFIELD*    CLOUDY    79  71  75 S6        30.09S HX  82
$$

ILZ028>032-037-038-041>044-048-051>054-059>061-120600-
CENTRAL ILLINOIS

CITY           SKY/WX    TMP DP  RH WIND       PRES   REMARKS
PONTIAC        CLOUDY    72  66  83 SE6       30.13S
BLOOMINGTON    CLOUDY    71  65  81 SE6       30.14S
DECATUR        CLOUDY    77  65  66 S8        30.13R
PEORIA         CLOUDY    79  64  60 S9        30.09F HX  81
LACON*         CLOUDY    73  65  76 CALM      30.09F
LINCOLN*       CLOUDY    74  66  75 S3        30.09R
SPRINGFIELD    MOCLDY    79  67  66 S9        30.10R HX  81
TAYLORVILLE    CLOUDY    73  66  78 SE7       30.12R
$$

ILZ033-039-045-046-055>057-062-063-120600-
EAST-CENTRAL ILLINOIS

CITY           SKY/WX    TMP DP  RH WIND       PRES   REMARKS
CHAMPAIGN      LGT RAIN  70  66  87 E5        30.14R
RANTOUL*       CLOUDY    74  62  67 CALM      30.16R
MATTOON        CLOUDY    71  66  84 S5        30.13S
PARIS*         CLOUDY    71  64  78 CALM      30.15R
$$

ILZ079-100>102-120600-
SOUTHWEST ILLINOIS

CITY           SKY/WX    TMP DP  RH WIND       PRES   REMARKS
ALTON          CLOUDY    79  73  82 S7        30.11R HX  82
BELLEVILLE     CLOUDY    75  72  89 S5        30.10S
CAHOKIA*       PTCLDY    79  71  76 S3        30.10S HX  82
SPARTA*        CLEAR     73  68  83 S5        30.13S
$$

ILZ064>066-069>071-074>076-080>082-084>086-088>090-092>094-120600-
SOUTH-CENTRAL ILLINOIS

CITY           SKY/WX    TMP DP  RH WIND       PRES   REMARKS
CARBONDALE     PTCLDY    75  68  78 S6        30.13S
CAIRO*         CLEAR     76  69  79 CALM      30.14S
MARION         PTCLDY    75  68  78 CALM      30.15S
MT. VERNON     PTCLDY    72  66  83 CALM      30.15S
CENTRALIA*     MOCLDY    75  67  78 S6        30.13S
SALEM*         MOCLDY    79  69  71 SE5       30.14R HX  82
METROPOLIS*    CLEAR     70  67  89 CALM      30.14S
$$

ILZ067-068-072-073-078-083-087-091-120600-
SOUTHEAST ILLINOIS

CITY           SKY/WX    TMP DP  RH WIND       PRES   REMARKS
FLORA*         MOCLDY    72  66  82 S5        30.15R
HARRISBURG*    CLEAR     71  70  96 CALM      30.16R
ROBINSON*      CLOUDY    71  68  92 CALM      30.15S
CARMI*         CLEAR     70  69  97 CALM      30.14S FOG
$$

ABBREVIATIONS USED IN REMARKS
   TC - TEMPERATURE IN CELSIUS
  WCI - WIND CHILL INDEX
   HX - HEAT INDEX
  VSB - VISIBILITY
$$




USA.gov is the U.S. government's official web portal to all federal, state and local government web resources and services.